Weather History for Versailles, OH

Change the Weather History Date:

Tuesday, December 11, 2012

  Actual Average (KDAY) Record (KDAY)
Temperature  
Mean Temperature 30 °F 32 °F  
Max Temperature 32 °F 39 °F 67 °F (1931)
Min Temperature 28 °F 25 °F -8 °F (1917)
Degree Days  
Heating Degree Days 35 33  
Month to date heating degree days 340  
Since 1 July heating degree days 1451  
Cooling Degree Days 0 0  
Month to date cooling degree days 0  
Year to date cooling degree days 891  
Moisture  
Dew Point 27 °F    
Average Humidity 86    
Maximum Humidity 100    
Minimum Humidity 69    
Precipitation  
Precipitation 0.00 in 0.10 in 1.50 in (1899)
Month to date precipitation 1.14  
Year to date precipitation 39.07  
Snow  
Snow 0.00 in 0.10 in 5.40 in (1960)
Month to date snowfall 1.1  
Since 1 July snowfall 2.1  
Snow Depth -    
Sea Level Pressure  
Sea Level Pressure 30.06 in    
Wind  
Wind Speed 9 mph (WSW)    
Max Wind Speed 14 mph    
Max Gust Speed 17 mph    
Visibility 8 miles    
Events Snow    
T = Trace of Precipitation, MM = Missing Value Source: NWS Daily Summary

Daily Weather History Graph

Daily Weather History Graph

Search for Another Location

Airport:

Trip Planner

Search our weather history database for the weather conditions in past years. The results will help you decide how hot, cold, wet, or windy it might be!

Date:

Astronomy

Dec. 11, 2012 Rise Set
Actual Time 7:50 AM EST 5:12 PM EST
Civil Twilight 7:20 AM EST 5:42 PM EST
Nautical Twilight 6:46 AM EST 6:17 PM EST
Astronomical Twilight 6:13 AM EST 6:50 PM EST
Moon 5:44 AM EST (12/11) 3:50 PM EST (12/11)
Length of Visible Light 10h 22m
Length of Day
9h 21m
Waning Crescent, 4% of the Moon is Illuminated
Dec 11
Waning Crescent
Dec 13
New
Dec 20
First Quarter
Dec 28
Full
Jan 4
Last Quarter

Hourly Weather History & Observations

Time (EST) Temp. Windchill Dew Point Humidity Pressure Visibility Wind Dir Wind Speed Gust Speed Precip Events Conditions
12:15 AM 32.0 °F 24.2 °F 32.0 °F 100% 29.90 in 3.0 mi West 9.2 mph - N/A   Overcast
12:35 AM 32.0 °F 24.2 °F 32.0 °F 100% 29.90 in 4.0 mi West 9.2 mph - N/A Snow Light Snow
12:55 AM 32.0 °F 23.6 °F 32.0 °F 100% 29.90 in 5.0 mi West 10.4 mph - N/A   Overcast
1:15 AM 32.0 °F 23.6 °F 32.0 °F 100% 29.90 in 4.0 mi West 10.4 mph - N/A Snow Light Snow
1:35 AM 32.0 °F 23.6 °F 32.0 °F 100% 29.90 in 4.0 mi West 10.4 mph - N/A   Overcast
1:55 AM 32.0 °F 24.2 °F 32.0 °F 100% 29.90 in 5.0 mi West 9.2 mph - N/A   Overcast
2:15 AM 32.0 °F 24.2 °F 32.0 °F 100% 29.90 in 5.0 mi West 9.2 mph - N/A   Overcast
2:35 AM 32.0 °F 22.5 °F 32.0 °F 100% 29.92 in 5.0 mi West 12.7 mph - N/A Snow Light Snow
2:55 AM 32.0 °F 23.6 °F 32.0 °F 100% 29.93 in 5.0 mi West 10.4 mph - N/A   Overcast
3:35 AM 32.0 °F 24.2 °F 30.2 °F 93% 29.94 in 5.0 mi WNW 9.2 mph - N/A   Overcast
3:55 AM 32.0 °F 23.6 °F 30.2 °F 93% 29.95 in 4.0 mi WNW 10.4 mph - N/A Snow Light Snow
4:15 AM 32.0 °F 24.2 °F 30.2 °F 93% 29.95 in 5.0 mi West 9.2 mph - N/A Snow Light Snow
4:35 AM 32.0 °F 23.0 °F 30.2 °F 93% 29.96 in 5.0 mi West 11.5 mph - N/A   Overcast
4:55 AM 32.0 °F 24.2 °F 30.2 °F 93% 29.97 in 5.0 mi WNW 9.2 mph - N/A Snow Light Snow
5:15 AM 32.0 °F 23.6 °F 30.2 °F 93% 29.97 in 4.0 mi West 10.4 mph - N/A Snow Light Snow
5:35 AM 32.0 °F 23.6 °F 30.2 °F 93% 29.97 in 5.0 mi West 10.4 mph - N/A Snow Light Snow
5:55 AM 32.0 °F 24.8 °F 30.2 °F 93% 29.98 in 5.0 mi WNW 8.1 mph - N/A   Overcast
6:15 AM 32.0 °F 23.6 °F 30.2 °F 93% 29.98 in 4.0 mi West 10.4 mph - N/A   Overcast
6:35 AM 32.0 °F 24.2 °F 30.2 °F 93% 29.99 in 5.0 mi WNW 9.2 mph - N/A   Overcast
6:55 AM 32.0 °F 22.5 °F 30.2 °F 93% 29.99 in 5.0 mi WNW 12.7 mph - N/A   Overcast
7:15 AM 30.2 °F 21.3 °F 30.2 °F 100% 30.00 in 5.0 mi WNW 10.4 mph - N/A   Overcast
7:35 AM 32.0 °F 24.8 °F 30.2 °F 93% 30.02 in 7.0 mi WNW 8.1 mph - N/A   Overcast
7:55 AM 32.0 °F 23.0 °F 30.2 °F 93% 30.02 in 7.0 mi West 11.5 mph - N/A   Overcast
8:15 AM 32.0 °F 23.6 °F 28.4 °F 87% 30.04 in 7.0 mi West 10.4 mph - N/A   Overcast
8:35 AM 30.2 °F 22.6 °F 28.4 °F 93% 30.04 in 10.0 mi WNW 8.1 mph - N/A   Overcast
8:55 AM 30.2 °F 19.8 °F 28.4 °F 93% 30.05 in 10.0 mi West 13.8 mph - N/A   Overcast
9:15 AM 30.2 °F 20.8 °F 26.6 °F 86% 30.06 in 10.0 mi WNW 11.5 mph - N/A   Overcast
9:35 AM 30.2 °F 21.9 °F 26.6 °F 86% 30.06 in 10.0 mi WNW 9.2 mph - N/A   Overcast
9:55 AM 30.2 °F 22.6 °F 26.6 °F 86% 30.07 in 10.0 mi West 8.1 mph - N/A   Overcast
10:15 AM 32.0 °F 24.8 °F 26.6 °F 80% 30.08 in 10.0 mi West 8.1 mph - N/A   Overcast
10:35 AM 32.0 °F 24.8 °F 24.8 °F 75% 30.09 in 10.0 mi West 8.1 mph - N/A   Overcast
10:55 AM 32.0 °F 24.8 °F 26.6 °F 80% 30.09 in 10.0 mi West 8.1 mph - N/A   Overcast
11:15 AM 32.0 °F 25.6 °F 24.8 °F 75% 30.10 in 10.0 mi West 6.9 mph - N/A   Overcast
11:35 AM 32.0 °F 24.8 °F 24.8 °F 75% 30.10 in 10.0 mi WSW 8.1 mph - N/A   Overcast
11:55 AM 32.0 °F 24.2 °F 26.6 °F 80% 30.09 in 10.0 mi WSW 9.2 mph - N/A   Overcast
12:15 PM 32.0 °F 24.2 °F 26.6 °F 80% 30.09 in 10.0 mi WSW 9.2 mph - N/A   Overcast
12:35 PM 32.0 °F 23.0 °F 24.8 °F 75% 30.08 in 10.0 mi SW 11.5 mph - N/A   Overcast
12:55 PM 32.0 °F 23.6 °F 24.8 °F 75% 30.09 in 10.0 mi WSW 10.4 mph - N/A   Overcast
1:15 PM 32.0 °F 24.2 °F 26.6 °F 80% 30.09 in 10.0 mi WSW 9.2 mph - N/A   Overcast
1:35 PM 32.0 °F 23.0 °F 26.6 °F 80% 30.09 in 10.0 mi WSW 11.5 mph - N/A   Overcast
1:55 PM 32.0 °F 23.0 °F 23.0 °F 69% 30.09 in 10.0 mi SW 11.5 mph - N/A   Overcast
2:15 PM 32.0 °F 23.0 °F 23.0 °F 69% 30.09 in 10.0 mi SW 11.5 mph - N/A   Overcast
2:35 PM 32.0 °F 23.6 °F 26.6 °F 80% 30.09 in 10.0 mi SW 10.4 mph - N/A   Overcast
2:55 PM 32.0 °F 23.0 °F 24.8 °F 75% 30.09 in 10.0 mi SW 11.5 mph - N/A   Overcast
3:15 PM 32.0 °F 24.2 °F 23.0 °F 69% 30.08 in 10.0 mi SW 9.2 mph - N/A   Mostly Cloudy
3:35 PM 32.0 °F 23.6 °F 24.8 °F 75% 30.09 in 10.0 mi SW 10.4 mph - N/A   Scattered Clouds
3:55 PM 32.0 °F 25.6 °F 24.8 °F 75% 30.11 in 10.0 mi WSW 6.9 mph 17.3 mph N/A   Mostly Cloudy
4:15 PM 32.0 °F 24.2 °F 23.0 °F 69% 30.11 in 10.0 mi SW 9.2 mph - N/A   Scattered Clouds
4:35 PM 30.2 °F 21.9 °F 23.0 °F 75% 30.12 in 10.0 mi SW 9.2 mph - N/A   Scattered Clouds
4:55 PM 32.0 °F 24.2 °F 23.0 °F 69% 30.12 in 10.0 mi WSW 9.2 mph - N/A   Mostly Cloudy
5:15 PM 30.2 °F 21.9 °F 23.0 °F 75% 30.13 in 10.0 mi SW 9.2 mph - N/A   Scattered Clouds
5:35 PM 30.2 °F 23.4 °F 23.0 °F 75% 30.13 in 10.0 mi SW 6.9 mph - N/A   Clear
5:55 PM 30.2 °F 25.4 °F 24.8 °F 80% 30.13 in 10.0 mi SSW 4.6 mph - N/A   Clear
6:15 PM 30.2 °F 26.7 °F 24.8 °F 80% 30.13 in 10.0 mi South 3.5 mph - N/A   Clear
6:35 PM 30.2 °F 26.7 °F 23.0 °F 75% 30.13 in 10.0 mi South 3.5 mph - N/A   Clear
6:55 PM 28.4 °F 24.6 °F 24.8 °F 86% 30.14 in 10.0 mi South 3.5 mph - N/A   Clear
7:15 PM 28.4 °F - 24.8 °F 86% 30.14 in 10.0 mi Calm Calm - N/A   Clear
7:35 PM 28.4 °F 24.6 °F 24.8 °F 86% 30.15 in 10.0 mi South 3.5 mph - N/A   Clear
7:55 PM 28.4 °F 24.6 °F 24.8 °F 86% 30.15 in 10.0 mi South 3.5 mph - N/A   Clear
8:15 PM 28.4 °F 24.6 °F 24.8 °F 86% 30.16 in 10.0 mi South 3.5 mph - N/A   Clear
8:35 PM 28.4 °F 24.6 °F 26.6 °F 93% 30.16 in 10.0 mi South 3.5 mph - N/A   Clear
8:55 PM 28.4 °F 24.6 °F 26.6 °F 93% 30.17 in 10.0 mi South 3.5 mph - N/A   Clear
9:15 PM 28.4 °F 24.6 °F 26.6 °F 93% 30.17 in 10.0 mi South 3.5 mph - N/A   Clear
9:35 PM 28.4 °F 23.3 °F 24.8 °F 86% 30.17 in 10.0 mi South 4.6 mph - N/A   Clear
9:55 PM 28.4 °F 24.6 °F 24.8 °F 86% 30.17 in 10.0 mi South 3.5 mph - N/A   Clear
10:35 PM 28.4 °F 22.2 °F 24.8 °F 86% 30.18 in 10.0 mi SSW 5.8 mph - N/A   Clear
10:55 PM 28.4 °F 23.3 °F 24.8 °F 86% 30.19 in 10.0 mi SSW 4.6 mph - N/A   Clear
11:15 PM 28.4 °F 22.2 °F 24.8 °F 86% 30.19 in 10.0 mi SSW 5.8 mph - N/A   Clear
11:35 PM 28.4 °F 22.2 °F 24.8 °F 86% 30.20 in 10.0 mi SSW 5.8 mph - N/A   Clear
11:55 PM 28.4 °F 22.2 °F 24.8 °F 86% 30.20 in 10.0 mi SSW 5.8 mph - N/A   Clear